Temperature
22 21 19 19 19 19 20 20 20 19 16 15 15 15 16 13 12 12 12 12 11 11 10 9 8 6 5 4 3 2 2 2 2 2 2 1 1 0 -1 -1 -3 -4 -4 -6
21 20 19 19 19 19 19 19 20 18 15 15 15 15 17 16 12 12 12 13 13 12 11 10 8 7 5 4 3 2 2 2 2 2 1 1 0 -0 -1 -3 -4 -4 -5 -6
21 18 18 18 19 19 20 19 18 17 18 16 15 16 16 16 15 13 13 13 13 13 12 11 9 7 5 4 3 2 1 2 2 2 1 1 -0 -1 -2 -3 -3 -4 -6 -7
20 18 18 18 19 18 19 17 17 16 15 17 17 16 16 15 13 13 13 13 13 13 12 11 10 8 6 4 3 2 2 2 2 1 1 0 -1 -1 -2 -3 -4 -5 -6 -7
19 18 18 18 18 17 18 16 16 16 16 16 17 16 17 16 15 14 14 14 14 13 13 12 10 8 6 4 3 2 2 2 1 1 1 -0 -1 -2 -2 -3 -4 -5 -6 -7
18 17 18 18 17 16 16 16 16 15 15 16 18 18 18 17 18 18 16 16 15 14 13 11 10 8 6 4 3 2 2 1 1 1 0 -0 -1 -2 -3 -4 -5 -5 -6 -7
17 17 17 16 16 16 15 16 16 16 15 18 18 17 17 19 19 19 18 17 15 14 13 11 9 7 5 4 3 2 1 1 1 1 -0 -1 -1 -2 -3 -4 -5 -6 -6 -7
20 18 16 16 17 16 18 17 17 17 18 18 16 16 18 18 19 18 17 16 15 14 12 11 9 7 5 4 3 2 2 1 1 0 -0 -1 -2 -3 -3 -4 -5 -6 -7 -7
19 18 15 16 16 15 17 17 17 16 18 17 17 19 19 17 16 16 15 15 14 13 12 10 8 7 5 3 2 2 1 1 1 0 -0 -1 -2 -3 -3 -4 -5 -6 -7 -8
17 18 16 14 14 14 14 15 15 16 16 15 18 19 18 15 16 15 14 15 15 14 12 10 8 6 4 3 2 1 1 1 1 0 -0 -1 -2 -3 -3 -4 -5 -6 -7 -7
17 17 16 14 14 15 14 15 15 16 16 15 15 17 20 18 19 18 17 17 16 15 13 11 8 6 4 2 1 1 1 1 1 0 -0 -1 -2 -3 -4 -4 -5 -6 -7 -7
16 16 16 16 15 14 16 16 16 15 15 15 13 15 19 19 19 19 18 17 16 15 13 11 8 5 3 2 1 1 1 1 1 0 -1 -1 -2 -3 -3 -4 -5 -6 -7 -7
15 14 16 16 14 13 14 15 16 16 15 14 14 16 19 19 18 18 18 17 15 14 12 10 7 5 3 2 1 1 1 1 1 -0 -1 -1 -2 -3 -4 -4 -5 -6 -6 -7
13 13 14 16 16 15 14 14 14 14 13 13 14 15 18 17 17 18 18 17 15 14 12 10 7 5 3 2 1 1 1 1 0 -0 -1 -1 -2 -3 -3 -4 -5 -5 -6 -7
12 12 14 15 16 16 15 15 14 13 14 14 15 16 17 17 17 18 18 17 15 14 12 10 8 5 3 2 1 1 1 1 1 -0 -1 -1 -2 -3 -3 -4 -4 -5 -6 -7
11 12 14 14 15 15 14 14 14 14 14 14 15 15 16 18 18 18 17 16 15 14 12 11 8 6 4 3 2 1 1 1 1 0 -1 -1 -2 -3 -3 -4 -4 -5 -5 -6
11 11 12 12 15 14 13 14 13 13 13 13 13 14 15 16 16 17 17 16 15 15 13 12 10 8 5 4 3 2 2 1 1 -0 -1 -1 -2 -3 -3 -4 -4 -4 -5 -6
11 12 12 12 14 12 15 16 16 14 14 13 13 14 14 15 17 17 17 16 16 15 14 13 11 9 6 4 3 2 2 1 1 -0 -1 -1 -2 -2 -3 -3 -4 -4 -5 -6
10 11 12 11 11 12 15 15 14 13 13 14 13 14 14 16 14 15 18 17 17 15 14 13 11 9 7 5 3 2 2 1 1 0 -1 -1 -2 -2 -3 -3 -3 -4 -5 -5
8 9 10 10 9 11 15 14 14 14 12 15 15 13 15 14 11 14 18 17 16 15 13 12 11 9 7 5 4 3 2 1 1 0 -0 -1 -2 -2 -3 -3 -3 -4 -4 -5
7 8 8 8 8 11 14 12 12 13 15 19 18 18 17 13 14 17 17 16 15 14 13 11 10 9 8 6 4 3 2 2 1 0 -1 -1 -2 -2 -3 -3 -4 -4 -4 -5
8 7 8 8 8 10 12 11 12 15 18 19 19 19 18 17 17 17 16 16 15 14 12 11 9 8 7 6 4 3 3 2 1 -0 -1 -1 -2 -2 -3 -3 -3 -4 -4 -5
11 12 11 11 12 15 14 14 16 17 16 17 18 18 17 16 17 17 17 16 15 14 12 10 9 7 6 5 5 4 3 2 1 -0 -1 -1 -2 -2 -3 -3 -3 -4 -4 -5
13 13 13 12 12 15 15 16 16 17 17 17 17 17 17 16 17 17 16 16 15 14 12 10 8 7 6 5 5 4 3 2 1 -0 -1 -1 -2 -2 -3 -3 -4 -4 -4 -5
14 11 10 11 12 15 16 17 17 18 18 17 17 17 17 16 16 16 16 15 14 13 12 10 8 7 7 6 5 4 2 2 1 -0 -1 -1 -2 -2 -3 -3 -4 -4 -4 -5
13 12 11 13 14 13 15 17 17 17 17 17 16 16 16 16 15 15 15 14 13 12 11 10 9 7 6 5 5 4 3 2 1 -0 -1 -1 -2 -2 -3 -3 -4 -4 -4 -5
Wind_Speed
3 2 3 5 5 5 5 6 7 3 7 5 9 11 9 14 12 12 11 13 14 14 13 13 12 12 11 10 9 7 5 3 2 0 1 3 3 4 6 7 8 9 11 12
5 3 4 3 1 4 6 7 5 5 7 5 7 11 8 11 15 13 12 13 13 13 12 13 13 13 12 11 10 8 7 4 2 1 1 3 4 4 7 8 7 9 11 13
3 5 2 2 4 6 7 2 4 5 4 8 5 6 6 2 7 11 12 12 11 12 13 13 14 13 12 11 11 9 7 4 3 2 2 3 3 4 4 3 4 9 13 14
4 3 2 5 4 2 3 6 3 5 6 3 5 4 8 7 7 10 12 13 13 12 11 12 14 14 13 11 10 9 7 5 4 3 3 3 4 4 5 4 4 10 12 13
3 5 4 5 1 1 3 2 4 6 5 5 7 5 5 7 9 12 14 14 13 12 11 11 13 14 12 11 10 9 8 7 5 4 4 4 5 4 4 5 6 6 9 12
3 1 2 3 2 2 4 4 5 4 3 5 6 4 4 7 8 7 10 11 11 10 10 9 10 12 11 11 10 9 8 8 7 6 6 6 5 6 6 7 6 5 5 8
7 5 4 0 4 5 5 4 3 3 4 4 4 3 7 8 8 6 8 10 10 10 9 10 11 12 12 12 11 9 9 8 8 7 6 5 5 6 7 6 6 6 5 5
6 6 8 5 2 3 3 3 3 3 4 2 3 6 6 9 8 5 4 5 6 8 9 10 12 12 12 13 12 10 10 9 7 6 5 5 5 4 4 5 6 6 6 6
5 2 3 3 2 3 4 3 2 3 5 5 6 7 5 6 7 7 8 9 10 10 10 11 11 12 12 13 12 11 10 8 7 7 6 6 5 5 6 6 5 5 5 9
5 4 6 5 2 4 4 5 2 3 3 5 8 7 6 9 10 11 11 12 12 11 11 12 12 12 12 12 11 10 9 9 7 6 6 5 5 6 6 6 7 7 7 9
3 4 4 5 8 8 6 4 5 4 3 3 5 7 3 10 9 8 9 9 10 11 12 12 11 12 11 11 10 10 9 8 7 7 6 5 5 6 5 6 7 6 6 8
2 3 5 4 2 3 3 6 7 4 5 5 4 9 7 7 6 7 8 6 6 9 11 11 12 12 11 11 10 10 10 9 8 7 6 5 6 6 7 7 7 6 6 8
1 2 5 2 1 1 4 6 6 4 3 5 5 8 3 4 5 7 9 9 8 9 10 11 11 12 12 12 11 10 10 9 8 7 6 6 6 7 6 6 6 6 7 7
1 4 7 6 3 1 6 8 9 8 6 7 11 15 10 8 9 8 7 9 9 10 11 12 12 12 12 12 11 11 10 9 9 8 7 7 6 6 5 6 7 8 8 9
3 5 7 11 11 8 10 11 12 15 14 11 11 14 15 9 7 7 4 5 7 9 11 13 13 13 12 12 12 11 10 10 9 8 7 7 5 4 5 7 8 9 9 11
4 5 4 7 10 8 10 14 16 18 17 19 18 20 17 11 9 7 7 6 9 11 12 14 14 14 15 15 13 12 11 10 9 8 7 6 5 5 7 8 8 9 9 10
6 5 4 6 3 4 10 15 17 10 12 11 18 16 10 9 9 8 8 9 10 11 12 14 16 16 15 15 14 13 11 9 9 9 8 7 6 6 7 8 9 9 9 10
7 4 3 5 4 11 10 4 7 12 13 14 14 13 10 11 8 8 9 11 12 11 11 13 14 15 13 13 13 11 11 11 10 9 8 8 7 7 7 8 9 9 9 9
2 5 4 3 5 10 12 8 6 8 9 13 18 18 16 10 7 9 12 13 13 11 10 12 13 13 13 14 14 13 12 11 10 10 9 8 8 7 7 8 9 9 9 8
3 3 4 5 6 9 10 2 3 3 8 11 14 15 13 3 4 8 6 6 9 8 7 9 11 13 14 14 15 15 14 13 13 12 10 9 8 8 8 9 9 7 7 8
5 5 7 8 9 11 10 6 7 5 8 7 11 12 10 9 11 8 6 7 8 8 8 10 12 14 14 15 16 16 15 15 13 10 9 9 8 8 8 8 6 7 7 7
13 11 10 8 9 13 8 10 11 11 4 5 7 9 10 11 13 12 10 10 10 9 10 11 12 12 13 16 17 17 16 13 11 11 10 8 8 7 6 6 7 6 6 6
13 14 10 14 14 8 11 12 9 5 6 7 6 8 9 11 12 13 12 11 11 11 11 11 12 12 13 16 18 18 15 13 13 12 10 8 8 7 6 6 6 5 4 4
8 7 7 8 12 10 9 10 12 14 15 14 12 13 11 13 15 15 13 11 10 11 12 12 13 15 16 17 17 16 14 15 14 13 11 9 8 7 6 5 5 4 4 4
9 5 6 9 8 9 12 13 17 17 15 15 15 15 15 14 16 16 14 12 11 11 12 13 16 18 18 17 17 15 15 16 15 13 11 9 8 6 5 5 5 5 5 5
12 10 10 14 10 9 11 9 10 13 15 15 15 16 14 13 16 16 14 12 10 11 12 14 17 17 17 17 17 16 16 17 16 13 12 9 8 6 5 5 4 7 6 8
Wind_Direction
235 251 63 42 27 345 339 317 306 94 145 209 248 261 241 178 194 213 216 210 215 215 203 191 180 165 156 155 158 165 168 167 157 171 323 308 308 300 295 293 299 313 315 314
237 126 70 47 3 291 277 285 319 95 157 212 275 275 258 183 196 206 218 222 217 214 200 187 176 168 168 169 169 169 171 162 167 159 247 251 265 264 275 277 303 313 307 303
12 87 96 260 246 281 269 286 0 337 287 215 260 268 180 175 193 201 217 231 233 217 203 187 178 174 172 175 170 170 151 167 192 189 246 277 283 286 296 320 315 303 300 300
95 120 222 257 249 304 325 59 358 300 296 239 194 277 203 182 208 218 221 225 232 231 208 188 179 177 176 169 150 146 154 183 196 200 233 272 283 285 290 291 279 292 302 305
154 158 223 258 35 346 352 57 287 279 269 278 206 243 197 172 212 219 216 218 221 219 206 191 177 173 167 153 145 150 162 190 197 202 229 251 265 275 286 289 288 294 302 303
90 71 293 351 53 247 312 270 235 263 263 256 178 213 231 196 197 185 190 196 199 197 191 177 159 153 148 142 144 154 175 196 195 206 227 240 259 279 290 294 297 297 292 295
188 192 162 170 254 202 227 271 243 228 224 220 133 216 249 170 154 170 185 187 184 179 173 166 157 157 153 152 156 167 185 201 198 205 223 238 252 264 272 283 290 294 293 292
226 193 164 184 277 324 266 282 314 286 289 337 199 232 248 149 145 149 167 180 179 181 177 174 168 164 161 163 166 175 191 201 195 202 224 236 248 253 259 270 278 283 284 283
319 92 85 79 24 305 278 229 25 305 290 275 254 230 182 137 170 198 212 214 215 203 186 175 168 167 168 170 173 180 188 194 194 201 218 235 246 261 265 272 273 271 271 289
311 298 158 141 210 232 269 318 260 240 267 277 282 262 220 188 221 216 215 221 220 202 184 175 174 174 172 170 172 177 183 192 191 196 218 230 234 250 257 269 273 274 279 291
289 285 172 174 207 200 187 223 234 263 274 241 278 271 223 172 180 193 210 213 207 193 184 179 177 173 166 162 166 174 184 189 190 199 212 232 246 254 261 266 270 274 282 289
221 299 267 199 102 20 213 221 200 214 231 211 247 270 246 182 171 189 219 219 193 180 176 173 171 168 168 168 172 180 187 188 191 194 201 228 246 256 260 266 274 282 284 288
131 245 277 228 325 337 274 246 239 261 302 235 230 258 225 184 204 221 225 226 204 176 168 169 172 176 177 177 181 185 187 186 183 183 200 228 245 254 263 276 286 289 286 286
26 244 237 262 341 220 233 227 210 206 217 234 232 251 257 241 244 249 232 213 195 179 175 179 183 185 182 182 184 186 186 179 178 182 200 225 242 258 276 291 294 290 286 288
203 248 257 270 280 253 242 240 209 213 221 231 246 252 261 264 283 290 270 195 186 183 186 191 191 189 185 184 185 185 183 176 175 183 201 221 241 272 287 287 285 284 284 288
216 248 272 273 257 250 261 251 235 229 233 243 261 272 271 281 276 269 262 236 220 214 203 198 194 192 190 188 186 182 180 173 169 183 199 210 230 254 266 273 277 280 281 282
195 220 250 265 232 321 267 243 224 218 216 210 237 247 272 273 261 257 262 256 241 227 209 199 198 197 193 188 183 181 177 166 170 184 195 204 221 246 260 274 281 283 286 286
194 204 242 272 293 251 246 258 229 218 232 217 238 259 275 269 284 282 263 254 252 237 212 200 195 193 185 177 173 170 167 168 175 186 196 202 216 239 255 267 275 279 280 280
286 206 235 241 253 271 279 249 201 210 262 225 230 250 260 271 315 285 255 236 233 228 208 195 187 181 175 173 170 167 170 171 179 192 197 200 208 230 248 260 267 272 278 285
293 288 231 210 223 247 257 179 107 139 275 240 208 229 246 206 284 272 247 214 220 211 187 174 168 169 173 173 167 171 178 181 192 195 194 193 201 219 239 253 264 275 285 289
174 206 213 219 230 255 260 146 125 183 247 209 195 215 220 200 226 243 216 219 216 206 185 168 168 177 179 170 169 180 185 193 192 183 183 189 199 218 238 253 267 280 287 296
180 183 199 194 213 249 211 153 190 223 266 222 216 221 225 233 250 257 244 234 218 204 188 177 179 183 176 172 176 186 193 188 173 173 179 188 202 222 239 250 264 273 288 302
196 195 195 200 218 243 176 204 231 279 282 269 262 260 252 257 263 266 261 245 224 207 197 187 185 183 181 181 184 192 190 173 169 171 180 189 202 217 228 240 256 273 286 291
225 210 224 239 247 256 239 239 256 260 259 262 263 266 263 259 264 269 266 254 231 210 199 190 187 192 194 190 191 192 177 170 170 176 183 189 198 211 225 235 238 245 263 282
254 194 232 254 265 284 266 243 247 257 261 262 261 257 254 256 263 264 265 258 236 214 199 193 199 202 200 192 192 187 175 171 173 178 184 188 191 198 218 231 232 239 227 239
242 228 232 254 247 244 262 258 251 257 263 263 266 271 264 250 258 265 265 258 236 214 199 200 206 207 200 191 190 187 178 174 175 181 186 187 186 192 204 219 252 275 260 265
Height
1555 1555 1560 1561 1560 1559 1558 1559 1558 1558 1564 1567 1566 1562 1557 1559 1562 1563 1564 1564 1565 1565 1566 1567 1568 1568 1567 1566 1566 1567 1566 1566 1564 1563 1561 1558 1556 1553 1550 1547 1544 1540 1536 1531
1555 1558 1560 1559 1559 1560 1559 1559 1557 1559 1563 1564 1562 1558 1551 1552 1554 1556 1558 1558 1559 1560 1561 1562 1562 1562 1560 1561 1561 1562 1562 1561 1560 1559 1557 1554 1552 1549 1546 1544 1540 1537 1532 1528
1554 1561 1560 1560 1559 1559 1556 1558 1560 1563 1559 1558 1563 1555 1550 1550 1551 1552 1553 1553 1554 1554 1555 1556 1556 1555 1555 1556 1556 1557 1557 1557 1556 1555 1553 1550 1548 1545 1543 1540 1537 1533 1528 1525
1557 1560 1560 1560 1558 1559 1559 1560 1561 1562 1565 1559 1558 1564 1551 1548 1550 1548 1547 1547 1547 1548 1550 1550 1550 1549 1549 1551 1551 1552 1553 1553 1552 1551 1549 1546 1544 1542 1539 1536 1532 1528 1525 1521
1557 1559 1560 1560 1558 1560 1559 1561 1562 1562 1562 1560 1554 1560 1547 1543 1546 1542 1540 1540 1541 1542 1544 1545 1544 1544 1545 1546 1546 1547 1548 1549 1548 1547 1545 1543 1540 1538 1535 1532 1528 1524 1521 1517
1558 1558 1559 1558 1559 1560 1559 1560 1561 1562 1562 1564 1547 1553 1544 1539 1533 1531 1533 1534 1536 1537 1539 1540 1540 1540 1540 1540 1540 1542 1544 1544 1544 1543 1541 1539 1537 1534 1531 1527 1524 1520 1516 1512
1559 1557 1557 1559 1559 1559 1561 1563 1565 1566 1571 1555 1544 1548 1541 1524 1523 1526 1528 1530 1531 1533 1534 1534 1535 1534 1534 1534 1535 1537 1539 1539 1539 1538 1537 1535 1533 1530 1527 1523 1520 1515 1511 1508
1553 1557 1556 1557 1558 1558 1554 1559 1567 1569 1560 1550 1548 1549 1529 1518 1520 1522 1524 1526 1528 1528 1528 1529 1529 1528 1528 1528 1530 1532 1534 1534 1534 1534 1532 1531 1529 1526 1523 1520 1516 1512 1508 1504
1551 1555 1557 1556 1557 1559 1555 1554 1555 1562 1553 1558 1547 1529 1520 1518 1519 1520 1521 1522 1522 1523 1523 1523 1523 1523 1523 1523 1524 1527 1529 1530 1529 1529 1528 1527 1525 1522 1519 1516 1512 1508 1504 1500
1554 1555 1555 1557 1559 1558 1559 1556 1559 1561 1565 1566 1545 1530 1526 1523 1518 1516 1516 1516 1516 1517 1517 1516 1516 1517 1517 1518 1520 1522 1524 1525 1525 1524 1523 1522 1520 1518 1515 1511 1508 1504 1500 1496
1555 1558 1556 1557 1557 1554 1559 1558 1556 1555 1554 1565 1560 1539 1506 1508 1506 1508 1509 1510 1510 1510 1510 1510 1510 1511 1512 1513 1514 1516 1518 1519 1519 1519 1519 1518 1516 1514 1511 1507 1503 1500 1496 1492
1554 1557 1555 1549 1546 1547 1546 1546 1550 1559 1554 1553 1559 1540 1501 1500 1500 1503 1505 1505 1505 1505 1505 1505 1505 1506 1506 1507 1508 1510 1513 1514 1514 1514 1514 1513 1512 1509 1506 1503 1500 1496 1492 1487
1554 1559 1558 1553 1553 1552 1550 1545 1543 1545 1549 1551 1552 1531 1499 1498 1499 1499 1500 1500 1500 1500 1500 1500 1500 1499 1500 1501 1502 1505 1507 1508 1509 1509 1509 1508 1507 1504 1502 1499 1495 1492 1487 1483
1555 1557 1558 1552 1548 1546 1548 1543 1541 1546 1551 1547 1535 1518 1502 1499 1497 1496 1495 1495 1495 1494 1494 1493 1493 1493 1493 1494 1496 1499 1501 1502 1503 1504 1504 1503 1502 1500 1497 1495 1491 1487 1483 1479
1555 1557 1548 1543 1538 1537 1538 1536 1537 1538 1533 1531 1517 1508 1495 1492 1492 1491 1491 1490 1490 1489 1488 1487 1486 1486 1487 1488 1490 1492 1494 1496 1497 1498 1498 1498 1497 1495 1493 1490 1487 1483 1479 1475
1553 1554 1547 1542 1534 1533 1534 1528 1527 1526 1523 1517 1511 1502 1487 1489 1488 1486 1486 1486 1485 1483 1482 1480 1479 1479 1479 1480 1482 1485 1488 1490 1491 1492 1493 1493 1492 1491 1489 1486 1483 1479 1475 1470
1551 1552 1550 1546 1532 1534 1533 1514 1513 1512 1505 1507 1508 1495 1486 1486 1484 1483 1482 1480 1479 1477 1475 1473 1472 1471 1472 1473 1475 1478 1481 1484 1485 1487 1487 1488 1487 1486 1484 1481 1478 1475 1471 1466
1544 1546 1546 1545 1536 1543 1510 1497 1496 1498 1494 1494 1491 1486 1483 1482 1480 1479 1477 1475 1472 1470 1468 1466 1465 1464 1465 1467 1469 1473 1476 1477 1479 1481 1482 1482 1482 1481 1479 1477 1474 1471 1467 1462
1539 1541 1542 1544 1544 1527 1505 1493 1493 1495 1492 1483 1483 1481 1478 1477 1477 1472 1470 1468 1465 1463 1461 1460 1458 1458 1458 1460 1462 1466 1468 1471 1473 1474 1475 1476 1477 1476 1475 1473 1470 1467 1463 1459
1540 1540 1543 1542 1545 1533 1501 1491 1489 1493 1494 1473 1473 1473 1472 1474 1479 1469 1464 1462 1459 1457 1455 1453 1451 1451 1451 1453 1455 1458 1461 1463 1465 1468 1470 1471 1471 1471 1470 1468 1466 1463 1460 1456
1542 1541 1542 1540 1536 1515 1489 1488 1491 1499 1483 1466 1465 1466 1467 1468 1466 1461 1458 1455 1453 1450 1448 1446 1444 1443 1444 1445 1448 1450 1453 1455 1459 1462 1463 1465 1465 1466 1465 1464 1462 1459 1456 1452
1522 1530 1530 1527 1530 1512 1480 1485 1485 1474 1465 1463 1462 1461 1461 1460 1457 1455 1452 1449 1446 1443 1441 1438 1437 1436 1437 1438 1440 1442 1444 1449 1452 1455 1457 1459 1460 1460 1460 1459 1458 1456 1453 1449
1499 1497 1498 1498 1489 1474 1471 1469 1465 1464 1462 1459 1458 1457 1457 1454 1451 1448 1445 1442 1439 1436 1433 1431 1430 1429 1429 1429 1431 1434 1437 1442 1444 1447 1450 1452 1454 1455 1455 1455 1453 1452 1449 1446
1485 1482 1484 1481 1472 1469 1467 1465 1463 1461 1458 1455 1454 1452 1451 1447 1444 1441 1437 1434 1431 1428 1425 1423 1422 1420 1419 1420 1422 1426 1431 1434 1437 1440 1443 1446 1447 1449 1450 1450 1449 1448 1446 1443
1477 1480 1480 1474 1466 1465 1460 1458 1456 1453 1451 1448 1446 1445 1443 1441 1436 1433 1429 1426 1423 1420 1417 1415 1412 1410 1410 1412 1415 1419 1422 1426 1429 1433 1436 1439 1441 1443 1444 1445 1445 1444 1442 1439
1471 1474 1473 1463 1460 1460 1453 1452 1451 1449 1445 1442 1440 1436 1435 1434 1429 1425 1421 1418 1415 1411 1408 1405 1403 1401 1401 1403 1406 1410 1413 1417 1421 1425 1428 1431 1434 1437 1438 1440 1440 1439 1439 1436